This is the latest recevied weather packets stored in our database for station/object N2ZVN. If no packets are shown the sender has not sent any weather packets the latest 10 day(s).
| Time | Temp. | Humidity | Pressure | Rain* | Wind** | Luminosity | Snow |
|---|---|---|---|---|---|---|---|
| 1777835192 | 13.89° C | 38% | 1011.1 hPa | 0 mm | - | 401 W/m² | - |
| 1777834889 | 13.89° C | 37% | 1011.2 hPa | 0 mm | - | 428 W/m² | - |
| 1777834585 | 13.89° C | 37% | 1011.4 hPa | 0 mm | - | 488 W/m² | - |
| 1777834280 | 13.33° C | 38% | 1011.4 hPa | 0 mm | - | 600 W/m² | - |
| 1777833976 | 13.33° C | 35% | 1011.6 hPa | 0 mm | - | 569 W/m² | - |
| 1777833673 | 13.33° C | 36% | 1011.4 hPa | 0 mm | - | 377 W/m² | - |
| 1777833369 | 13.33° C | 35% | 1011.6 hPa | 0 mm | - | 452 W/m² | - |
| 1777833066 | 13.33° C | 34% | 1011.7 hPa | 0 mm | - | 318 W/m² | - |
| 1777832765 | 13.33° C | 36% | 1011.9 hPa | 0 mm | - | 375 W/m² | - |
| 1777832463 | 13.33° C | 37% | 1011.8 hPa | 0 mm | - | 437 W/m² | - |
| 1777832159 | 13.33° C | 38% | 1011.8 hPa | 0 mm | - | 410 W/m² | - |
| 1777831855 | 12.78° C | 35% | 1012 hPa | 0 mm | - | 362 W/m² | - |
| 1777831553 | 13.33° C | 36% | 1011.9 hPa | 0 mm | - | 268 W/m² | - |
| 1777831250 | 13.33° C | 37% | 1012 hPa | 0 mm | - | 307 W/m² | - |
| 1777830947 | 13.33° C | 36% | 1012 hPa | 0 mm | - | 466 W/m² | - |
| 1777830645 | 12.78° C | 38% | 1012 hPa | 0 mm | - | 242 W/m² | - |
| 1777830342 | 13.33° C | 41% | 1012.2 hPa | 0 mm | - | 418 W/m² | - |
| 1777830038 | 13.33° C | 38% | 1012.2 hPa | 0 mm | - | 787 W/m² | - |
| 1777829733 | 12.78° C | 38% | 1012.3 hPa | 0 mm | - | 506 W/m² | - |
| 1777829429 | 12.78° C | 35% | 1012.4 hPa | 0 mm | - | 308 W/m² | - |
| 1777829127 | 12.78° C | 39% | 1012.1 hPa | 0 mm | - | 295 W/m² | - |
| 1777828824 | 12.78° C | 39% | 1012.3 hPa | 0 mm | - | 350 W/m² | - |
| 1777828521 | 12.22° C | 38% | 1012.5 hPa | 0 mm | - | 730 W/m² | - |
| 1777828218 | 12.78° C | 41% | 1012.5 hPa | 0 mm | - | 251 W/m² | - |
| 1777827914 | 12.22° C | 48% | 1012.7 hPa | 0 mm | - | 311 W/m² | - |
* Rain latest hour (hover to see other rain measurements)
** Current wind speed in m/s (hover to see current wind gust speed)